Location: Peterborough
(44.3091°N, 78.3197°W)
Time: 06:16:50
(UTC-04:00)

Vanguard 1 Rocket - Pass Details

Date: 22 March 2023
Orbit: 655 x 4220 km, 34.3° (Epoch: 04 June)

Event Time Altitude Azimuth Distance (km) Brightness Sun altitude
Rises 21:17:03 0° 194° (SSW) 8,442 12.2 -19.8°
Reaches altitude 10° 21:25:41 10° 180° (S) 7,357 11.8 -21.2°
Enters shadow 21:40:01 21° 145° (SE) 5,853 11.0 -23.6°
Maximum altitude 21:40:58 21° 142° (SE) 5,788 - -23.7°
Drops below altitude 10° 21:52:49 10° 102° (ESE) 5,689 - -25.6°
Sets 21:57:59 0° 88° (E) 6,142 - -26.4°
